Edwards AFB North Base, CA

9:16 PM PDT on October 13, 2019 (GMT -0700)
Edwards AFB North Base

Weather History for K9L2 - May, 2019

Change the Weather History Date:

Wednesday, May 29, 2019

  Actual Average (WUND) Record (WUND)
Temperature  
Mean Temperature 66 °F -  
Max Temperature 86 °F - - (-1)
Min Temperature 47 °F - - (-1)
Cooling Degree Days 1    
Growing Degree Days 16 (Base 50)    
Moisture  
Dew Point 40 °F    
Average Humidity 39    
Maximum Humidity 78    
Minimum Humidity 13    
Precipitation  
Precipitation 0.00 in - - ()
Sea Level Pressure  
Sea Level Pressure 29.81 in    
Wind  
Wind Speed 5 mph ()    
Max Wind Speed 22 mph    
Max Gust Speed -    
Visibility 7.8 miles    
Events      
Averages and records for this station are not official NWS values.
T = Trace of Precipitation, MM = Missing Value Source: Averaged Metar Reports

Daily Weather History Graph

Daily Weather History Graph

Search for Another Location

Airport or City:

Astronomy

May. 29, 2019 Rise Set
Actual Time 5:39 AM PDT 7:58 PM PDT
Civil Twilight 5:10 AM PDT 8:27 PM PDT
Nautical Twilight 4:35 AM PDT 9:02 PM PDT
Astronomical Twilight 3:56 AM PDT 9:41 PM PDT
Moon 3:05 AM PDT (5/29) 3:24 PM PDT (5/29)
Length of Visible Light 15h 16m
Length of Day
14h 18m
Waning Crescent, 22% of the Moon is Illuminated
May 29
Waning Crescent
Jun 3
New
Jun 9
First Quarter
Jun 17
Full
Jun 25
Last Quarter

Hourly Weather History & Observations

Time (PDT) Temp. Dew Point Humidity Pressure Visibility Wind Dir Wind Speed Gust Speed Precip Events Conditions
12:58 AM 56.7 °F 43.0 °F 60% 29.83 in 9.0 mi SSE 5.8 mph - N/A   Clear
1:58 AM 54.1 °F 40.6 °F 60% 29.83 in 10.0 mi East 5.8 mph - N/A   Clear
2:58 AM 52.7 °F 40.1 °F 62% 29.82 in 10.0 mi SSE 3.5 mph - N/A   Clear
3:58 AM 48.2 °F 39.9 °F 73% 29.82 in 10.0 mi NW 4.6 mph - N/A   Clear
4:58 AM 48.9 °F 41.0 °F 74% 29.83 in 10.0 mi Calm Calm - N/A   Clear
5:58 AM 47.8 °F 41.4 °F 78% 29.84 in 10.0 mi WNW 5.8 mph - N/A   Clear
6:58 AM 51.3 °F 41.5 °F 69% 29.85 in 9.0 mi Calm Calm - N/A   Clear
7:58 AM 56.7 °F 41.7 °F 57% 29.86 in 8.0 mi Calm Calm - N/A   Clear
8:58 AM 62.6 °F 42.1 °F 47% 29.86 in 7.0 mi East 3.5 mph - N/A   Clear
9:58 AM 68.0 °F 41.4 °F 38% 29.85 in 6.0 mi East 3.5 mph - N/A   Haze
10:13 AM 69.8 °F 41.0 °F 35% 29.84 in 7.0 mi Calm Calm - N/A   Clear
10:28 AM 69.8 °F 41.0 °F 35% 29.86 in 6.0 mi Calm Calm - N/A   Haze
10:43 AM 71.6 °F 41.0 °F 33% 29.84 in 7.0 mi ESE 4.6 mph - N/A   Clear
10:58 AM 72.5 °F 40.6 °F 32% 29.84 in 7.0 mi Calm Calm - N/A   Clear
11:13 AM 73.4 °F 41.0 °F 31% 29.84 in 7.0 mi Calm Calm - N/A   Clear
11:28 AM 75.2 °F 39.2 °F 27% 29.83 in 6.0 mi Calm Calm - N/A   Haze
11:43 AM 77.0 °F 39.2 °F 26% 29.83 in 8.0 mi Calm Calm - N/A   Partly Cloudy
12:58 PM 81.1 °F 39.4 °F 23% 29.81 in 8.0 mi SSW 4.6 mph - N/A   Partly Cloudy
1:58 PM 82.8 °F 34.2 °F 17% 29.79 in 8.0 mi SSE 9.2 mph - N/A   Partly Cloudy
2:58 PM 84.7 °F 33.6 °F 16% 29.76 in 8.0 mi South 11.5 mph - N/A   Clear
3:58 PM 85.6 °F 30.0 °F 13% 29.75 in 8.0 mi ESE 4.6 mph - N/A   Clear
4:58 PM 83.7 °F 32.9 °F 16% 29.73 in 6.0 mi SSW 10.4 mph - N/A   Haze
5:58 PM 83.5 °F 34.2 °F 17% 29.74 in 6.0 mi SW 16.1 mph - N/A   Haze
6:13 PM 82.4 °F 35.6 °F 19% 29.74 in 7.0 mi SW 19.6 mph - N/A   Clear
6:58 PM 79.0 °F 35.2 °F 21% 29.75 in 6.0 mi SW 21.9 mph - N/A   Haze
7:58 PM 74.3 °F 38.5 °F 27% 29.78 in 6.0 mi SSW 12.7 mph - N/A   Haze
8:13 PM 73.4 °F 39.2 °F 29% 29.79 in 7.0 mi SSW 12.7 mph - N/A   Clear
8:58 PM 70.9 °F 43.5 °F 37% 29.81 in 8.0 mi SW 9.2 mph - N/A   Clear
9:58 PM 67.3 °F 45.3 °F 45% 29.83 in 8.0 mi SW 6.9 mph - N/A   Clear
10:58 PM 66.9 °F 46.0 °F 47% 29.83 in 9.0 mi South 6.9 mph - N/A   Clear
11:58 PM 65.3 °F 47.1 °F 52% 29.81 in 9.0 mi SSW 6.9 mph - N/A   Clear